EW5040 Weather Reports


Display with metric or nautical units.
time (UTC)temp
F
wind
direction
speed
MPH
gust
MPH
rain 1hr
in
rain 24hr
in
rain mn
in
humidity
%
barometer
mb
20260901023019 70 207 0.0 1.0 0.00 0.45 0.28 96 1014.9
20260901021517 70 207 0.0 1.0 0.00 0.45 0.28 96 1015.3
20260901020015 70 207 0.0 1.0 0.00 0.45 0.28 96 1015.1
20260901014515 70 207 0.0 0.0 0.00 0.54 0.28 95 1015.2
20260901013018 70 207 0.0 0.0 0.00 0.54 0.28 96 1015.3
20260901011514 71 207 0.0 1.0 0.00 0.54 0.28 95 1015.3
20260901010014 71 207 0.0 2.0 0.00 0.54 0.28 95 1015.4
20260901004529 71 207 0.0 1.0 0.00 0.56 0.28 95 1015.3
20260901003016 71 207 0.0 3.0 0.00 0.56 0.28 95 1015.2
20260901001611 71 207 0.0 3.0 0.00 0.56 0.28 95 1015.1
20260901000015 72 207 0.0 3.0 0.00 0.56 0.28 95 1015.2
20260831234512 72 214 1.0 4.0 0.00 0.57 0.28 95 1015.0
20260831233010 72 236 1.0 4.0 0.00 0.57 0.28 95 1015.1
20260831231509 72 219 1.0 4.0 0.00 0.57 0.28 95 1015.1
20260831230010 72 216 2.0 8.0 0.00 0.57 0.28 95 1015.2
20260831224508 73 229 1.0 3.0 0.00 0.61 0.28 95 1015.3
20260831223008 73 218 0.0 5.0 0.00 0.61 0.28 95 1015.2
20260831221511 73 217 1.0 3.0 0.00 0.61 0.28 95 1015.3
20260831220005 73 223 0.0 3.0 0.00 0.61 0.28 95 1015.3
20260831214516 73 203 1.0 5.0 0.00 0.62 0.28 95 1015.6
20260831213005 73 267 1.0 11.0 0.00 0.62 0.28 95 1015.5
20260831211505 73 197 2.0 10.0 0.00 0.62 0.28 95 1015.5
20260831210002 73 252 2.0 7.0 0.00 0.62 0.28 95 1015.5
20260831204502 73 215 0.0 6.0 0.00 0.62 0.28 96 1015.3
20260831203001 73 236 1.0 6.0 0.00 0.62 0.28 96 1015.2
20260831201503 73 223 1.0 7.0 0.01 0.62 0.28 96 1015.2
20260831200058 73 179 1.0 5.0 0.04 0.62 0.28 96 1015.4
20260831194554 72 166 1.0 4.0 0.04 0.62 0.28 96 1015.6
20260831193054 72 234 0.0 4.0 0.04 0.62 0.28 96 1015.9
20260831191551 72 167 0.0 1.0 0.03 0.61 0.28 95 1016.1
20260831190111 72 167 0.0 2.0 0.01 0.57 0.25 95 1016.0
20260831184549 72 167 0.0 5.0 0.06 0.57 0.25 95 1016.2
20260831183053 72 219 0.0 2.0 0.06 0.57 0.25 95 1016.4
20260831181540 72 219 0.0 1.0 0.06 0.57 0.25 94 1016.3
20260831180037 72 219 0.0 2.0 0.05 0.56 0.24 93 1016.5
20260831174533 72 220 1.0 3.0 0.00 0.52 0.19 92 1016.7
20260831173031 72 203 2.0 5.0 0.00 0.52 0.19 91 1016.6
20260831171531 72 232 1.0 6.0 0.00 0.52 0.19 93 1016.6
20260831170027 71 163 0.0 5.0 0.00 0.52 0.19 94 1016.6
20260831164526 71 256 2.0 7.0 0.00 0.52 0.19 96 1016.8
20260831163037 70 186 3.0 8.0 0.00 0.52 0.19 98 1016.8
20260831161518 69 161 0.0 5.0 0.00 0.52 0.19 98 1016.8
20260831160021 68 161 1.0 5.0 0.01 0.52 0.19 97 1017.0
20260831154512 68 161 0.0 6.0 0.02 0.53 0.19 97 1017.3
20260831153010 68 161 0.0 5.0 0.04 0.53 0.19 98 1017.2
20260831151520 68 161 2.0 5.0 0.06 0.53 0.19 98 1017.3
20260831150009 68 160 2.0 5.0 0.06 0.52 0.18 98 1017.1
20260831144509 67 160 1.0 5.0 0.06 0.52 0.17 98 1017.0
20260831143002 67 161 0.0 2.0 0.04 0.50 0.15 98 1017.0
20260831141501 67 161 0.0 1.0 0.03 0.48 0.13 98 1017.1
20260831140101 67 161 0.0 3.0 0.02 0.47 0.12 98 1017.1
20260831134603 67 161 0.0 3.0 0.01 0.46 0.11 98 1017.1
20260831133100 67 161 1.0 5.0 0.01 0.46 0.11 98 1017.1
20260831131601 67 161 1.0 5.0 0.00 0.45 0.10 98 1017.1
20260831130105 67 160 2.0 6.0 0.00 0.45 0.10 98 1017.1
20260831124558 67 154 1.0 6.0 0.00 0.45 0.10 98 1016.9
20260831123056 67 153 0.0 6.0 0.00 0.45 0.10 98 1016.9
20260831121555 67 144 1.0 3.0 0.00 0.45 0.10 98 1016.8
20260831120057 66 144 1.0 4.0 0.00 0.45 0.10 98 1017.0
20260831114550 66 47 0.0 3.0 0.01 0.45 0.10 98 1017.2
20260831113109 66 47 0.0 3.0 0.01 0.45 0.10 98 1017.4
20260831111548 66 47 0.0 1.0 0.01 0.45 0.10 98 1017.0
20260831110046 66 47 0.0 1.0 0.01 0.45 0.10 98 1017.1
20260831104544 66 47 0.0 2.0 0.00 0.44 0.09 98 1017.2
20260831103049 66 47 0.0 1.0 0.00 0.44 0.09 98 1017.4
20260831101547 66 47 0.0 3.0 0.00 0.44 0.09 98 1017.2
20260831100042 66 47 0.0 2.0 0.00 0.44 0.09 98 1017.2
20260831094553 66 182 0.0 2.0 0.00 0.44 0.09 97 1017.3
20260831093040 66 182 0.0 1.0 0.00 0.44 0.09 97 1017.2
20260831091546 66 182 0.0 1.0 0.00 0.44 0.09 97 1017.2
20260831090040 66 182 0.0 1.0 0.00 0.44 0.09 97 1017.3
20260831084536 66 182 0.0 1.0 0.00 0.44 0.09 97 1017.5
20260831083035 66 182 0.0 1.0 0.02 0.44 0.09 97 1017.5
20260831081635 66 182 0.0 2.0 0.02 0.44 0.09 97 1017.6
20260831080039 67 188 0.0 2.0 0.02 0.44 0.09 97 1017.6
20260831074530 67 135 0.0 4.0 0.03 0.44 0.09 97 1017.9
20260831073029 67 251 0.0 4.0 0.03 0.42 0.07 97 1018.2
20260831071537 67 290 0.0 5.0 0.03 0.42 0.07 97 1018.2
20260831070030 67 175 0.0 5.0 0.05 0.42 0.07 98 1018.2
20260831064526 66 218 0.0 2.0 0.05 0.41 0.06 97 1018.3
20260831063028 66 218 0.0 1.0 0.04 0.39 0.04 97 1018.3
20260831061529 66 218 0.0 1.0 0.04 0.39 0.04 97 1018.4
20260831060021 66 218 0.0 1.0 0.02 0.37 0.02 97 1018.6
20260831054521 67 218 0.0 2.0 0.01 0.36 0.01 97 1018.7
20260831053028 67 218 0.0 2.0 0.00 0.35 0.00 97 1018.6
20260831051519 67 218 0.0 1.0 0.00 0.35 0.00 97 1018.5
20260831050026 67 218 0.0 0.0 0.00 0.35 0.00 97 1018.5
20260831044518 67 218 0.0 0.0 0.00 0.35 0.00 97 1018.5
20260831043016 67 218 0.0 0.0 0.00 0.35 0.00 97 1018.6
20260831041515 67 218 0.0 0.0 0.01 0.35 0.00 97 1018.5
20260831040013 67 218 0.0 0.0 0.04 0.35 0.00 97 1018.5
20260831034514 67 218 0.0 1.0 0.08 0.35 0.35 97 1018.6
20260831033012 67 218 0.0 5.0 0.10 0.35 0.35 97 1018.7
20260831031611 67 197 1.0 5.0 0.10 0.34 0.34 97 1018.7
20260831030012 67 5 0.0 1.0 0.09 0.30 0.30 97 1018.9
20260831024512 67 5 0.0 2.0 0.12 0.27 0.27 97 1019.0